Regional Weather Roundup
Issued by NWS Little Rock, AR

Home | Current Version | Previous Version | Graphics & Text | Print | Product List | Glossary On
Versions: 1 2 3 4 5 6 7 8 9 10 11 12 13 14 15 16 17 18 19 20 21 22 23 24 25 26 27 28 29 30 31 32 33 34 35 36 37 38 39 40 41 42 43 44 45 46 47 48 49 50
000
ASUS44 KLZK 191705
RWRLZK

WEATHER ROUNDUP FOR ARKANSAS
NATIONAL WEATHER SERVICE LITTLE ROCK AR
1100 AM CST SUN FEB 19 2017

NOTE: "FAIR" INDICATES FEW OR NO CLOUDS BELOW 12,000 FEET WITH NO
SIGNIFICANT WEATHER AND/OR OBSTRUCTIONS TO VISIBILITY.

ARZ001-003-010-029-191800-
NORTHWEST ARKANSAS

CITY           SKY/WX    TMP DP  RH WIND       PRES   REMARKS
FAYETTEVILLE   SUNNY     67  59  75 S10       30.02S
FORT SMITH     MOSUNNY   67  55  65 E8        30.03R
HARRISON       CLOUDY    65  58  78 S15       30.05S
BENTONVILLE    SUNNY     66  57  72 S13       30.02F
ROGERS         SUNNY     67  58  72 SE12      30.01F
SILOAM SPGS    SUNNY     68  57  68 S9        30.01R
HIGHFILL       SUNNY     68  58  70 SE14      30.00F
SPRINGDALE     SUNNY     68  59  73 SE10G16   30.03F
$$

ARZ004-005-016-191800-
NORTH CENTRAL ARKANSAS

CITY           SKY/WX    TMP DP  RH WIND       PRES   REMARKS
BATESVILLE     CLOUDY    64  55  72 S6        30.11R
FLIPPIN        CLOUDY    61  52  72 E3        30.05S
MTN HOME       CLOUDY    60  53  77 E6        30.06F
$$

ARZ040-041-191800-
WEST CENTRAL ARKANSAS

CITY           SKY/WX    TMP DP  RH WIND       PRES   REMARKS
MENA           CLOUDY    63  63 100 NE3       30.04F
MOUNT IDA      CLOUDY    63  58  83 SE3       30.03R
$$

ARZ009-017-025-026-028-191800-
NORTHEAST ARKANSAS

CITY           SKY/WX    TMP DP  RH WIND       PRES   REMARKS
CORNING        FOG       52  52 100 CALM      30.13R VSB<1/4
JONESBORO      SUNNY     64  57  78 E7        30.10R
NEWPORT        CLOUDY    62  57  83 MISG        N/A
WALNUT RIDGE   CLOUDY    54  52  94 NE8       30.11S VSB 3/4
BLYTHEVILLE    SUNNY     63  57  81 MISG      30.12S
$$

ARZ022-023-033-042-044-191800-
CENTRAL ARKANSAS

CITY           SKY/WX    TMP DP  RH WIND       PRES   REMARKS
LITTLE ROCK    PTSUNNY   63  57  81 VRB5      30.09S
N LITTLE ROCK    N/A     61  58  88 S5        30.10S
JACKSONVILLE   CLOUDY    60  60 100 E3        30.09R
SEARCY         CLOUDY    57  57 100 VRB3      30.12F
HOT SPRINGS    CLOUDY    65  59  81 S5        30.06F
RUSSELLVILLE   CLOUDY    63  56  78 E6        30.06S
CLINTON        PTSUNNY   57  54  88 CALM      30.10S
$$

ARZ036-191800-
EAST ARKANSAS

CITY           SKY/WX    TMP DP  RH WIND       PRES   REMARKS
WEST MEMPHIS   SUNNY     67  57  70 SE5       30.09S
$$

ARZ050-053-066-070-073-191800-
SOUTHWEST ARKANSAS

CITY           SKY/WX    TMP DP  RH WIND       PRES   REMARKS
ARKADELPHIA    CLOUDY    64  60  87 SE3       30.07S
CAMDEN         PTSUNNY   68  55  64 SE6       30.06F
TEXARKANA      CLOUDY    62  61  96 S9        30.05R
EL DORADO      CLOUDY    64  59  83 E9        30.06F
DE QUEEN       CLOUDY    61  61 100 E5        30.03R FOG
$$

ARZ056-057-069-191800-
SOUTHEAST ARKANSAS

CITY           SKY/WX    TMP DP  RH WIND       PRES   REMARKS
PINE BLUFF     SUNNY     69  58  67 SE7       30.08F
STUTTGART      CLOUDY    63  50  63 SE8       30.11S
MONTICELLO     SUNNY     70  58  65 SE7       30.09S

$$





USA.gov is the U.S. government's official web portal to all federal, state and local government web resources and services.